Location: Newark
(35.5300°N, 14.3000°E)
Time: 21:04:37
(UTC+00:00)

Explorer 11/Cluster Stage 4 - Pass Details

Date: 19 November 2019
Orbit: 467 x 1259 km, 28.8° (Epoch: 13 December)

Event Time Altitude Azimuth Distance (km) Brightness Sun altitude
Rises 18:04:03 0° 228° (SW) 3,013 10.4 -26.3°
Reaches altitude 10° 18:06:32 10° 215° (SW) 2,223 9.4 -26.8°
Enters shadow 18:10:13 27° 172° (S) 1,541 8.0 -27.6°
